Flag for U.S.A. Weather past 2 weeks in Unalaska, Alaska, U.S.A.

Now
48 °F

Low clouds.


Feels Like: 46 °F
Forecast: 48 / 59 °F
Wind: 5 mph from North

Location: Dutch Harbor

Current Time: Jul 29, 2014 at 5:27:17 AM

Latest Report: Jul 29, 2014 at 4:56 AM


Visibility: 10 mi

Pressure: 30.29 "Hg

Humidity: 86%

Dew point: 44 °F

Location of UnalaskaLocation

Historic Weather in Unalaska — Graph

°F

Unalaska temperature yesterday

Maximum temperature yesterday: 53 °F (at 3:56 PM)
Minimum temperature yesterday: 47 °F (at 7:56 AM)
Average temperature yesterday: 50 °F

Past Weeks' High & Low Weather Summary

 TemperatureHumidityPressure
High60 °F (Jul 16, 4:56 PM)100% (Jul 14, 8:52 AM)30.33 "Hg (Jul 14, 8:52 AM)
Low47 °F (Jul 28, 7:56 AM)62% (Jul 16, 6:56 PM)29.99 "Hg (Jul 14, 5:48 AM)
Average53 °F81%30.16 "Hg
* Reported Jul 14 5:48 AM — Jul 29 3:56 AM, Unalaska, Weather by CustomWeather, © 2014

Note: Actual official high and low records may vary slightly from our data, if they occured in-between our weather recording intervals... More about our weather records

Advertising

Unalaska weather history for previous 24 hours

 ConditionsComfort  
Time TempWeatherWind HumidityBarometerVisibility
3:56 AM
Jul 29
49 °FLow clouds.3 mph86%30.29 "Hg10 mi
2:56 AM49 °FLow clouds.No wind86%30.31 "Hg10 mi
1:56 AM49 °FLow clouds.3 mph86%30.30 "Hg10 mi
12:56 AM50 °FLow clouds.No wind83%30.30 "Hg10 mi
11:56 PM
Jul 28
50 °FLow clouds.No wind86%30.30 "Hg10 mi
9:56 PM51 °FLow clouds.6 mph86%30.30 "Hg10 mi
8:56 PM52 °FOvercast.6 mph83%30.30 "Hg10 mi
7:56 PM52 °FOvercast.3 mph83%30.30 "Hg10 mi
6:56 PM53 °FOvercast.7 mph80%30.31 "Hg10 mi
5:56 PM53 °FOvercast.3 mph80%30.31 "Hg10 mi
4:56 PM52 °FMostly cloudy.3 mph83%30.31 "Hg10 mi
3:56 PM53 °FMostly cloudy.5 mph80%30.32 "Hg10 mi
2:56 PM51 °FCloudy.6 mph83%30.32 "Hg10 mi
1:56 PM51 °FMostly cloudy.5 mph83%30.33 "Hg10 mi
12:56 PM50 °FLow clouds.6 mph83%30.32 "Hg10 mi
11:56 AM49 °FLow clouds.5 mph86%30.32 "Hg10 mi
10:56 AM48 °FMore clouds than sun.3 mph89%30.32 "Hg10 mi
9:56 AM48 °FMostly cloudy.No wind89%30.31 "Hg10 mi
8:56 AM47 °FMostly cloudy.5 mph93%30.31 "Hg10 mi
7:56 AM47 °FFog.3 mph93%30.30 "Hg6 mi
6:56 AM48 °FMostly cloudy.No wind89%30.31 "Hg10 mi
5:56 AM48 °FLow clouds.5 mph89%30.31 "Hg10 mi
Weather by CustomWeather, © 2014

See weather overviewHow to use our weather pages